Weather Roundup
Issued by NWS

Home | Current Version | Previous Version | Graphics & Text | Print | Product List | Glossary Off
Versions: 1 2 3 4 5 6 7 8 9 10 11 12 13 14 15 16 17 18 19 20 21 22 23 24 25 26 27 28 29 30 31 32 33 34 35 36 37 38 39 40 41 42 43 44 45 46 47 48 49 50

957
NZUS93 KARX 282310
HRRWXR

CURRENT HOURLY OBSERVATIONS ACROSS
MUCH OF THE UPPER MISSISSIPPI VALLEY
NATIONAL WEATHER SERVICE LA CROSSE WI
600 PM CDT THU JUL 28 2016


...SOUTHEAST MINNESOTA...


CITY           SKY/WX    TMP DP  RH WIND       PRES   REMARKS
ROCHESTER      LGT RAIN  66  64  93 NE10      30.02R
ROCHESTER/MAYO CLOUDY    66  66 100 N3        30.02R
WINONA         CLOUDY    70  63  78 NE5       30.00R
AUSTIN         CLOUDY    70  63  78 NE9       30.00S
ALBERT LEA     CLOUDY    70  64  83 NE10G18   30.01R
DODGE CENTER   CLOUDY   N/A N/A N/A NE9       30.02R
PRESTON        CLOUDY    66  60  82 NE10      30.01R
OWATONNA       CLOUDY    70  63  78 NE10      30.02R
FARIBAULT      CLOUDY    72  63  73 N5        30.02S
$$

...ELSEWHERE IN MINNESOTA...


CITY           SKY/WX    TMP DP  RH WIND       PRES   REMARKS
MINNEAPOLIS    CLOUDY    75  57  53 NE10G21   30.02R
INTNL FALLS    SUNNY     76  52  43 CALM      30.08S
DULUTH         CLOUDY    69  50  50 E16       30.08S
RED WING       CLOUDY    73  63  68 E5        30.00R
REDWOOD FALLS  PTSUNNY   75  58  55 N9        30.03S
MANKATO        PTSUNNY   73  61  64 N15       30.02S
WORTHINGTON    MOSUNNY   74  60  61 N13       30.04R
FAIRMONT       MOSUNNY   73  63  68 N8G16     30.00S
$$

...SOUTHWEST WISCONSIN...


CITY           SKY/WX    TMP DP  RH WIND       PRES   REMARKS
LA CROSSE      LGT RAIN  67  64  90 NE5       29.98R FOG
PRAIRIE DU CHI CLOUDY    71  65  81 NW9       29.92S
BOSCOBEL       CLOUDY    74  68  81 VRB6      29.92R
LONE ROCK      PTSUNNY   76  68  76 NE10      29.92S
PLATTEVILLE    CLOUDY    77  72  85 N8        29.91S
FORT MC COY    CLOUDY    65  64  96 N6        29.98S FOG
CAMP DOUGLAS   CLOUDY    68  64  87 NE7       29.97R
MAUSTON-NEW LI CLOUDY    70  65  84 NE5       29.95S
VIROQUA        CLOUDY    66  66 100 N7        29.97R
WIS DELLS      CLOUDY    71  64  78 NE12      29.95S
$$

...ELSEWHERE IN WISCONSIN...


CITY           SKY/WX    TMP DP  RH WIND       PRES   REMARKS
MILWAUKEE      CLOUDY    67  63  87 N13G23    29.94R
MADISON        CLOUDY    74  66  76 NE13      29.92R
GREEN BAY      CLOUDY    68  65  90 NE9       29.98S
EAU CLAIRE     CLOUDY    67  59  75 SE5       30.01R
BLACK RVR FLS  DRIZZLE   65  65 100 N7        30.00R
MEDFORD        CLOUDY    65  65  99 CALM      30.02S
WAUSAU         CLOUDY    66  61  84 CALM      30.00S
WIS RAPIDS     CLOUDY    68  57  68 E9        30.00R
MARSHFIELD     CLOUDY    64  59  83 E6        30.00S
RICE LAKE      CLOUDY    73  59  62 NE13      30.03S
$$

...NORTHEAST IOWA...


CITY           SKY/WX    TMP DP  RH WIND       PRES   REMARKS
WATERLOO       CLOUDY    75  65  70 NW16      29.93S
DUBUQUE        PTSUNNY   76  67  73 N9        29.92R
DECORAH        CLOUDY    66  64  94 VRB7      29.97S
MASON CITY     PTSUNNY   74  65  73 N12       29.99S
CHARLES CITY   PTSUNNY   70  66  88 N13       29.98S
OELWEIN        CLOUDY    72  66  83 N13       29.95S
$$

...ELSEWHERE IN IOWA...


CITY           SKY/WX    TMP DP  RH WIND       PRES   REMARKS
DES MOINES     PTSUNNY   80  61  52 N13       29.95S
IOWA CITY      SUNNY     81  66  60 NW13      29.91F
FORT DODGE     MOSUNNY   73  63  68 N8        30.00S
MARSHALLTOWN   MOSUNNY   77  65  66 N15       29.94F
CEDAR RAPIDS   MOSUNNY   77  68  73 NW15      29.92R
$$

...NORTHERN ILLINOIS...


CITY           SKY/WX    TMP DP  RH WIND       PRES   REMARKS
CHICAGO-OHARE  CLOUDY    75  72  90 NE8       29.87F
CHICAGO-MIDWAY CLOUDY    76  71  85 S5        29.87F
MOLINE         MOSUNNY   84  66  54 W12       29.88S
ROCKFORD       LGT RAIN  78  68  71 E5        29.90F
PEORIA         PTSUNNY   85  73  67 VRB5      29.88R HX  91
$$

NOTE: "FAIR" INDICATES FEW OR NO CLOUDS BELOW 12,000 FEET WITH NO
SIGNIFICANT WEATHER AND/OR OBSTRUCTIONS TO VISIBILITY. WIND
SPEEDS ARE IN MILES-PER-HOUR.




USA.gov is the U.S. government's official web portal to all federal, state and local government web resources and services.